Location: Unspecified
(48.8582°N, 2.2947°E)
Time: 08:34:43
(UTC+01:00)

ISS - Visible Passes

Search period start: 10 December 2018 00:00
Search period end: 20 December 2018 00:00
Orbit: 401 x 408 km, 51.6° (Epoch: 10 December)

Date Brightness Start Highest point End Pass type
(mag) Time Alt. Az. Time Alt. Az. Time Alt. Az.
10 Dec -3.9 17:28:18 10° WNW 17:31:35 73° NNE 17:34:50 10° ESE visible
10 Dec -2.0 19:05:00 10° W 19:07:53 29° SW 19:09:00 23° S visible
11 Dec -2.8 18:12:37 10° WNW 18:15:47 46° SSW 18:18:55 10° SE visible
12 Dec -0.8 18:57:38 10° W 18:59:37 15° SW 19:01:37 10° S visible
13 Dec -1.4 18:04:51 10° W 18:07:35 25° SW 18:10:18 10° SSE visible
15 Dec -0.4 17:57:41 10° WSW 17:59:13 13° SW 18:00:46 10° SSW visible
